TimeCDT,TemperatureF,Dew PointF,Humidity,Sea Level PressureIn,VisibilityMPH,Wind Direction,Wind SpeedMPH,Gust SpeedMPH,PrecipitationIn,Events,Conditions,WindDirDegrees,DateUTC
12:52 AM,73.9,64.9,73,29.82,10.0,SSE,10.4,-,N/A,,Clear,150,2013-07-07 05:52:00
1:52 AM,72.0,64.9,78,29.81,10.0,SE,8.1,-,N/A,,Clear,140,2013-07-07 06:52:00
2:52 AM,71.1,64.9,81,29.81,10.0,ESE,8.1,-,N/A,,Clear,120,2013-07-07 07:52:00
3:52 AM,69.1,64.0,84,29.81,9.0,SE,8.1,-,N/A,,Clear,130,2013-07-07 08:52:00
4:52 AM,68.0,64.0,87,29.80,9.0,ESE,8.1,-,N/A,,Clear,120,2013-07-07 09:52:00
5:52 AM,66.9,63.0,87,29.81,9.0,SE,6.9,-,N/A,,Clear,130,2013-07-07 10:52:00
6:52 AM,68.0,63.0,84,29.82,9.0,ESE,4.6,-,N/A,,Clear,120,2013-07-07 11:52:00
7:52 AM,73.0,63.0,71,29.83,10.0,SSE,5.8,-,N/A,,Clear,150,2013-07-07 12:52:00
8:52 AM,77.0,64.9,66,29.83,10.0,South,5.8,-,N/A,,Clear,190,2013-07-07 13:52:00
9:52 AM,79.0,66.0,64,29.82,10.0,SSW,11.5,-,N/A,,Clear,210,2013-07-07 14:52:00
10:52 AM,82.0,68.0,62,29.83,10.0,SW,5.8,-,N/A,,Clear,220,2013-07-07 15:52:00
11:52 AM,84.9,68.0,57,29.83,10.0,NW,4.6,-,N/A,,Clear,310,2013-07-07 16:52:00
12:52 PM,86.0,69.1,57,29.82,10.0,Calm,Calm,-,N/A,,Clear,0,2013-07-07 17:52:00
1:52 PM,87.1,70.0,57,29.83,10.0,East,5.8,-,N/A,,Clear,100,2013-07-07 18:52:00
2:52 PM,87.1,70.0,57,29.83,10.0,Calm,Calm,-,N/A,,Clear,0,2013-07-07 19:52:00
3:52 PM,87.1,68.0,53,29.83,10.0,ESE,5.8,-,N/A,,Clear,120,2013-07-07 20:52:00
4:52 PM,88.0,70.0,55,29.83,10.0,SSW,5.8,-,N/A,,Clear,210,2013-07-07 21:52:00
5:52 PM,87.1,70.0,57,29.83,10.0,SW,6.9,-,N/A,,Clear,220,2013-07-07 22:52:00
6:52 PM,87.1,69.1,55,29.81,10.0,Calm,Calm,-,N/A,,Clear,0,2013-07-07 23:52:00
7:52 PM,84.9,71.1,63,29.83,10.0,Calm,Calm,-,N/A,,Clear,0,2013-07-08 00:52:00
8:52 PM,82.9,72.0,69,29.86,10.0,NNW,5.8,-,0.00,,Clear,340,2013-07-08 01:52:00
9:52 PM,84.0,70.0,63,29.90,9.0,NW,23.0,33.4,0.00,,Scattered Clouds,320,2013-07-08 02:52:00
10:09 PM,75.2,66.2,73,29.93,10.0,NNW,26.5,43.7,N/A,Thunderstorm,Scattered Clouds,340,2013-07-08 03:09:00
10:52 PM,73.9,64.9,73,29.88,10.0,NW,4.6,-,0.00,Rain,Light Rain,320,2013-07-08 03:52:00
11:52 PM,72.0,66.9,84,29.86,10.0,SSW,4.6,-,0.00,,Clear,210,2013-07-08 04:52:00